• Join FlightAware (Why Join?)
  • Login
  • US Flag 
10:22PM EST


 

Airport Tracker/Info


-or-


 

Live Flight TrackerFlight Track Log ✈ CHQ5307 ✈ 24-Feb-2014 ✈ KORD - KAZO

Flight Track Log - Related Links

Times and Time Zones

All times are in EST time to prevent confusion due to time zone crossing. See the CHQ5307 flight status page for this flight to view local times or setup timezone preferences in your user account.

Time Position Orientation Groundspeed Altitude Reporting Facility
EST Latitude Longitude Course Direction KTS MPH feet Rate Location/Type
04:51PM 42.0167 -87.9500 90° East 161 185 2,500  Level Chicago TRACON
04:52PM 42.0500 -87.9333 20° North 236 272 4,800 1,333 Climbing Chicago TRACON
04:53PM 42.0342 -87.4620 77° East  Level FlightAware Approximate
04:53PM 42.1319 -87.8292 43° Northeast 249 287 5,900  Level Chicago Center
04:54PM 42.0579 -87.3158 78° East  Level FlightAware Approximate
04:54PM 42.1819 -87.7603 46° Northeast 255 293 8,700  Level Chicago Center
04:55PM 42.0804 -87.1692 78° East  Level FlightAware Approximate
04:55PM 42.1783 -87.6458 92° East 304 350 10,700  Level Chicago Center
04:56PM 42.1000 -87.0235 90° East  Level FlightAware Approximate
04:56PM 42.1622 -87.5117 99° East 333 383 13,000  Level Chicago Center
04:57PM 42.1475 -87.3772 98° East 357 411 14,700 1,016 Climbing Chicago Center
04:58PM 42.1303 -87.2314 99° East 391 450 15,100 194 Climbing Chicago Center
04:59PM 42.1119 -87.0628 98° East 419 482 15,100  Level Chicago Center
05:00PM 42.1153 -86.9133 88° East 409 471 15,100  Level Chicago Center
05:01PM 42.1217 -86.7617 87° East 407 468 15,100 -48 Level Chicago Center
05:02PM 42.1294 -86.5914 86° East 409 471 15,000 -726 Descending Chicago Center
05:03PM 42.1342 -86.4422 88° East 401 461 13,600 -1,452 Descending Chicago Center
05:04PM 42.1378 -86.2964 88° East 391 450 12,000 -1,210 Descending Chicago Center
05:06PM 42.1431 -86.1583 87° East 375 432 11,100 -435 Descending Chicago Center
05:07PM 42.1553 -86.0508 81° East 294 338 11,100 -194 Level Chicago Center
05:08PM 42.1742 -85.9375 77° East 277 319 10,700 -968 Descending Chicago Center
05:09PM 42.1897 -85.8517 76° East 270 311 9,100 -1,887 Descending Chicago Center
05:10PM 42.2289 -85.7500 62° Northeast 257 296 6,800 -2,032 Descending Chicago Center
05:11PM 42.2608 -85.6714 61° Northeast 246 283 4,900 -1,597 Descending Chicago Center
05:12PM 42.3042 -85.6411 27° Northeast 220 253 3,500 -1,113 Descending Chicago Center
05:13PM 42.3550 -85.6017 30° Northeast 217 250 2,600 -532 Descending Chicago Center
05:14PM 42.3125 -85.5644 147° Southeast 193 222 2,400 -435 Descending Chicago Center
05:15PM 42.2767 -85.5581 172° South 155 178 1,700 -484 Descending Chicago Center
05:16PM 42.2283 -85.5514 174° South 152 175 1,400 -290 Descending Chicago Center